Wind_Speed
14 19 23 28 32 37 41 46 48 48 47 48 49 51 50 49 48 47 46 46 45 44 44 44 44 44 41 41 43 43 43 42 40 38 37 36 35 34 34 34 33 33 33 32
12 17 21 26 30 34 39 43 44 45 45 45 47 49 50 48 46 46 44 45 43 42 43 43 43 43 43 41 40 41 42 43 43 43 40 39 38 37 36 36 36 35 35 35
11 16 20 22 26 31 36 39 41 43 43 42 44 48 48 45 45 44 43 42 41 40 39 39 41 41 42 42 42 41 42 43 42 43 44 44 42 41 39 38 38 38 38 38
8 13 18 21 23 27 29 34 37 39 40 41 42 44 47 44 43 42 39 38 38 38 37 37 38 39 40 41 42 43 43 43 44 43 43 43 44 43 42 42 42 41 40 41
8 11 15 18 21 24 25 29 32 34 35 36 40 41 43 44 41 40 36 35 35 35 36 36 37 38 40 40 41 42 43 43 43 44 44 45 44 45 45 44 43 43 43 43
8 9 12 15 17 22 24 25 27 29 31 31 33 38 38 40 39 37 35 34 35 34 35 35 35 36 37 39 40 41 41 42 42 43 44 45 45 45 46 46 46 45 45 46
8 9 11 14 17 20 22 23 23 24 26 27 28 30 32 33 34 34 32 32 33 33 33 34 34 35 35 37 39 41 41 42 42 42 43 44 45 46 46 46 46 47 47 47
7 9 12 14 17 19 21 22 23 25 26 24 25 26 26 28 30 31 31 31 32 32 33 33 33 34 35 37 38 40 41 42 43 43 44 44 45 46 46 46 46 47 47 47
7 9 10 12 14 18 20 20 19 20 23 22 23 24 24 26 26 28 29 31 32 32 33 34 34 34 34 36 37 38 40 41 42 43 44 45 46 47 47 48 48 49 49 50
7 8 8 10 13 16 17 17 18 18 20 21 21 23 23 25 26 26 27 28 31 33 33 34 34 34 35 36 37 38 39 41 42 43 44 45 46 48 49 49 49 50 50 50
6 6 8 9 12 13 15 16 17 18 19 20 20 22 23 24 25 26 28 29 30 31 32 33 34 35 35 36 38 39 40 41 42 43 44 45 46 47 48 49 50 51 51 52
5 7 8 9 10 13 13 13 15 15 16 18 20 21 22 23 25 26 28 29 30 31 32 33 34 35 36 36 37 38 39 40 41 41 42 43 44 45 46 47 48 49 49 50
5 7 8 9 10 12 13 13 14 15 16 17 18 20 21 23 25 26 27 28 30 31 32 32 33 34 35 36 36 37 37 38 39 40 41 42 43 44 45 46 47 47 47 47
6 7 8 9 9 11 13 14 16 17 17 17 17 18 19 21 23 24 26 27 28 29 30 32 33 34 34 35 35 36 36 37 38 38 39 40 41 42 42 43 44 45 45 45
7 8 9 10 11 12 13 14 16 18 18 19 18 19 20 22 23 24 25 26 27 29 31 32 33 34 35 36 36 36 37 37 37 37 37 38 39 39 40 41 41 42 43 43
8 8 10 11 12 13 13 14 16 18 19 20 20 21 22 24 25 26 27 27 29 30 31 32 33 34 35 36 37 37 37 38 38 38 38 38 38 39 40 40 41 41 42 42
9 10 11 12 13 15 15 16 18 18 19 20 21 22 23 25 26 27 28 29 30 31 31 32 33 34 35 36 37 37 37 38 38 38 39 39 39 40 40 40 41 41 42 42
10 11 12 13 15 16 16 18 19 20 21 22 23 24 26 27 28 29 30 30 31 32 33 33 34 35 36 37 37 38 38 38 39 39 39 40 40 40 40 40 40 41 41 41
9 11 12 13 15 17 18 18 20 21 22 23 25 26 27 29 30 31 32 32 33 33 34 34 35 36 36 37 38 38 38 39 39 39 39 40 40 40 40 40 40 40 40 40
8 10 12 13 14 16 18 20 21 23 23 24 25 27 28 29 30 31 33 34 34 35 35 36 36 36 37 37 37 37 38 38 38 39 39 39 39 39 39 39 39 39 39 40
6 8 10 12 14 15 17 19 21 22 23 25 26 28 29 30 31 32 34 35 36 36 37 37 37 37 38 38 37 37 37 38 38 39 39 39 39 39 39 39 39 39 39 38
6 7 9 11 13 14 17 18 20 22 24 25 26 28 29 31 32 33 34 35 36 37 37 38 38 38 39 39 38 38 38 38 38 38 38 39 39 39 38 38 37 37 37 37
6 7 9 10 12 14 16 18 20 22 24 25 27 28 29 30 32 33 34 35 36 37 38 38 39 39 39 39 39 39 39 39 38 38 38 37 37 38 37 37 36 36 36 35
8 8 9 10 11 14 16 18 20 22 25 27 28 29 30 31 32 33 34 35 35 36 37 38 38 38 39 39 39 39 39 39 38 38 38 37 37 37 37 36 35 35 35 34
10 10 10 11 12 14 16 19 21 23 26 28 29 31 32 32 33 33 34 35 35 35 36 36 36 37 37 37 38 38 38 38 38 38 38 37 37 36 36 36 35 35 34 33
12 12 13 13 15 16 18 20 23 25 27 28 30 31 33 33 33 34 35 35 36 35 35 36 36 36 36 37 37 37 38 38 38 38 38 37 37 36 36 35 35 34 33 32
Wind_Direction
191 194 195 198 200 202 203 204 205 206 208 209 210 209 209 210 213 214 218 221 224 226 228 229 231 233 235 237 238 239 240 240 241 242 244 246 247 250 253 256 258 260 261 262
181 187 189 191 195 200 202 202 205 206 209 211 212 212 211 213 213 214 216 220 224 226 228 229 231 232 234 237 239 242 243 243 244 243 245 247 249 251 254 256 258 260 261 262
169 183 185 186 193 196 199 202 205 207 209 213 213 214 214 215 214 215 218 218 221 224 228 230 230 232 234 237 240 242 243 245 246 246 247 248 251 252 254 256 257 258 259 261
168 181 187 189 187 190 195 199 203 208 212 215 216 219 216 217 219 217 219 221 224 227 230 232 233 233 235 237 239 241 243 245 247 248 250 251 252 254 255 257 258 259 260 261
163 170 179 185 188 190 192 197 202 208 212 217 218 220 217 219 220 220 222 224 225 227 230 232 234 234 235 238 239 241 243 245 247 249 251 252 253 254 255 257 258 260 261 263
154 167 178 183 186 190 192 195 200 206 211 217 219 223 223 222 223 225 227 225 226 227 229 232 233 234 236 238 240 242 244 246 247 249 251 252 254 255 256 258 259 261 263 265
150 161 172 180 183 186 192 195 198 204 212 218 219 223 224 223 224 225 227 227 229 229 231 233 236 237 238 240 241 242 244 245 247 249 251 253 254 256 257 258 260 261 263 264
154 167 175 178 183 188 193 196 201 207 215 221 223 226 226 225 226 227 230 231 232 233 233 236 238 240 240 241 242 244 246 247 248 249 251 253 254 256 257 259 261 262 265 266
148 158 168 176 182 186 191 200 206 212 216 222 225 228 229 228 228 230 233 234 234 235 235 237 238 239 241 242 244 245 246 248 250 251 252 254 255 257 258 260 262 263 266 267
148 162 168 179 185 186 193 199 207 214 218 223 225 226 228 228 228 231 233 235 235 235 236 237 238 240 242 243 245 246 248 249 252 253 254 255 256 257 259 260 262 264 266 267
166 171 177 185 189 192 199 207 212 217 220 224 226 226 226 228 228 230 232 233 234 235 237 239 241 243 244 245 246 247 249 250 252 253 254 255 256 257 259 261 263 264 266 268
169 183 187 193 201 207 209 212 215 221 224 228 231 230 227 230 231 231 232 233 234 235 236 239 241 243 245 246 246 247 249 250 252 253 254 255 256 257 259 261 262 264 266 267
187 194 199 203 210 214 217 219 221 224 226 229 228 229 228 229 231 232 234 235 235 236 237 238 240 242 244 245 246 247 249 250 252 253 254 256 257 258 259 260 262 263 265 267
209 208 210 213 218 220 223 226 228 229 229 230 230 230 231 231 234 236 236 236 237 238 238 238 240 241 243 245 246 248 249 250 252 254 255 256 257 258 260 261 263 263 265 267
226 220 221 225 226 229 231 230 231 231 231 234 235 236 237 239 240 241 241 241 241 241 241 241 242 243 244 245 247 248 249 250 251 252 254 255 257 258 260 262 263 265 266 267
235 233 233 234 236 235 234 235 235 235 237 240 240 240 241 242 243 245 246 247 246 246 246 245 245 246 246 247 248 249 250 251 251 252 254 256 258 259 261 263 264 265 266 268
241 242 241 241 242 241 241 242 242 243 244 246 247 246 245 246 247 247 248 249 249 249 249 249 249 249 248 249 249 250 252 253 254 254 255 257 259 261 262 264 265 265 267 268
252 250 248 245 246 245 248 249 249 250 251 252 252 250 250 251 251 251 251 251 251 252 252 252 252 252 251 251 251 252 253 254 255 256 256 258 259 261 262 263 264 265 267 268
256 255 254 252 250 250 253 256 256 256 256 256 255 254 254 254 254 254 254 253 253 254 254 254 254 253 253 253 253 254 254 255 255 256 256 258 259 260 262 263 265 266 267 268
263 259 258 258 257 255 256 259 261 261 259 259 258 257 257 256 257 257 257 257 257 257 257 256 255 254 254 254 254 255 255 255 255 256 257 258 259 260 262 263 265 266 267 268
282 271 266 266 265 264 265 264 264 264 264 262 261 261 260 260 261 261 260 260 260 259 259 258 257 256 256 256 255 255 255 255 256 256 257 258 259 260 262 263 265 266 267 268
305 288 278 275 275 273 271 270 269 268 268 268 267 266 264 264 263 263 263 262 262 261 261 260 259 258 258 257 256 255 256 256 256 256 257 258 259 260 261 263 264 266 267 268
325 311 295 287 284 280 279 277 276 275 274 273 272 271 270 268 266 265 264 264 263 263 262 261 260 260 259 258 257 256 255 256 256 256 256 257 257 259 261 262 263 265 267 267
342 327 313 300 292 287 286 284 281 280 279 277 275 274 272 271 270 268 268 266 265 265 264 263 261 260 259 259 258 257 256 255 255 256 256 256 256 258 259 260 262 264 265 266
346 333 321 310 302 297 293 290 287 285 284 282 279 276 275 273 272 271 270 269 267 266 265 264 262 260 259 259 258 257 256 255 255 255 255 255 256 257 259 260 261 263 264 264
343 335 326 316 310 305 301 297 294 290 288 286 284 280 277 275 272 271 271 270 269 268 266 265 263 262 260 259 258 257 256 255 255 254 254 254 255 257 258 258 259 261 262 263
Height
5598 5602 5606 5611 5618 5625 5633 5643 5653 5662 5670 5677 5685 5693 5701 5708 5716 5724 5730 5737 5743 5750 5755 5761 5766 5771 5776 5781 5786 5790 5794 5798 5802 5806 5809 5812 5815 5817 5820 5822 5823 5824 5826 5827
5600 5602 5606 5610 5616 5623 5631 5640 5649 5658 5666 5673 5680 5688 5695 5702 5709 5717 5724 5731 5737 5743 5748 5754 5760 5765 5770 5775 5780 5784 5788 5791 5795 5798 5801 5804 5807 5810 5812 5814 5816 5817 5818 5819
5602 5605 5607 5612 5617 5623 5631 5639 5648 5656 5663 5669 5676 5682 5689 5696 5703 5710 5717 5724 5731 5737 5743 5749 5754 5759 5764 5769 5773 5777 5781 5784 5787 5790 5794 5797 5799 5802 5804 5806 5808 5809 5810 5811
5605 5607 5610 5614 5619 5624 5631 5639 5647 5654 5660 5666 5673 5678 5685 5692 5698 5705 5712 5719 5726 5731 5737 5743 5748 5753 5757 5762 5766 5770 5773 5777 5780 5783 5786 5788 5791 5794 5796 5797 5799 5800 5801 5802
5608 5610 5613 5616 5621 5626 5633 5639 5646 5653 5659 5664 5669 5675 5682 5687 5694 5701 5708 5714 5720 5726 5731 5736 5741 5746 5750 5754 5758 5762 5765 5768 5771 5774 5777 5780 5783 5785 5786 5788 5790 5791 5791 5792
5612 5614 5616 5619 5623 5628 5633 5639 5645 5651 5656 5662 5667 5673 5679 5685 5692 5698 5704 5709 5715 5720 5725 5730 5734 5739 5743 5746 5750 5754 5757 5760 5763 5766 5768 5771 5773 5775 5777 5778 5780 5781 5782 5782
5616 5617 5619 5622 5625 5630 5635 5640 5646 5650 5654 5660 5665 5670 5677 5683 5688 5693 5699 5703 5709 5714 5719 5723 5727 5731 5735 5738 5742 5745 5748 5751 5754 5757 5759 5761 5763 5765 5767 5768 5770 5771 5771 5772
5619 5621 5622 5624 5628 5631 5635 5641 5646 5650 5654 5659 5663 5668 5675 5679 5684 5689 5694 5698 5703 5707 5712 5716 5721 5724 5727 5730 5733 5736 5739 5742 5745 5748 5750 5752 5753 5755 5757 5758 5759 5760 5760 5761
5621 5623 5624 5627 5629 5633 5636 5640 5644 5649 5652 5657 5660 5665 5671 5675 5680 5684 5689 5693 5697 5701 5705 5710 5713 5716 5719 5722 5725 5727 5730 5733 5735 5738 5740 5742 5743 5745 5746 5747 5748 5749 5750 5750
5624 5625 5627 5629 5631 5634 5637 5640 5644 5647 5650 5654 5658 5662 5667 5671 5675 5679 5683 5687 5691 5695 5698 5702 5705 5708 5711 5714 5716 5718 5721 5723 5725 5727 5730 5731 5733 5734 5735 5736 5737 5738 5738 5738
5625 5627 5629 5630 5632 5635 5638 5641 5643 5646 5649 5652 5656 5661 5663 5666 5669 5673 5677 5680 5684 5688 5691 5694 5697 5700 5702 5705 5707 5709 5711 5713 5715 5717 5719 5720 5722 5723 5724 5725 5725 5726 5726 5726
5627 5628 5629 5631 5633 5634 5637 5639 5642 5645 5647 5650 5653 5659 5658 5661 5664 5667 5671 5674 5677 5680 5683 5686 5689 5691 5694 5696 5698 5700 5702 5704 5705 5707 5708 5709 5710 5712 5713 5713 5714 5714 5714 5714
5627 5629 5630 5632 5635 5635 5636 5638 5640 5642 5645 5647 5650 5655 5654 5657 5659 5662 5665 5668 5671 5673 5676 5678 5681 5683 5685 5687 5689 5690 5692 5694 5695 5697 5698 5699 5700 5701 5701 5702 5702 5702 5702 5702
5627 5629 5631 5633 5633 5634 5635 5637 5638 5640 5642 5644 5646 5649 5650 5652 5655 5657 5659 5661 5664 5666 5668 5670 5672 5674 5676 5678 5679 5681 5682 5684 5685 5686 5687 5688 5689 5690 5690 5691 5691 5691 5691 5691
5626 5628 5628 5630 5631 5632 5633 5634 5636 5637 5639 5641 5643 5644 5646 5648 5649 5651 5653 5655 5657 5658 5660 5662 5663 5665 5667 5668 5670 5671 5673 5674 5675 5676 5677 5678 5679 5679 5680 5680 5680 5680 5680 5680
5624 5626 5627 5628 5629 5630 5631 5632 5633 5634 5636 5637 5638 5640 5641 5642 5644 5645 5647 5648 5649 5651 5652 5653 5655 5656 5657 5659 5660 5661 5663 5664 5665 5666 5667 5668 5669 5669 5669 5670 5670 5670 5669 5669
5621 5623 5624 5625 5626 5627 5628 5629 5630 5631 5632 5633 5634 5636 5635 5636 5637 5638 5639 5641 5641 5642 5643 5644 5645 5647 5648 5649 5650 5651 5652 5654 5655 5656 5657 5657 5658 5658 5659 5659 5659 5659 5659 5658
5619 5619 5620 5621 5623 5623 5627 5625 5625 5626 5627 5628 5628 5629 5629 5630 5630 5631 5631 5632 5633 5634 5634 5635 5636 5637 5638 5639 5640 5641 5642 5643 5644 5645 5646 5646 5647 5647 5648 5648 5648 5648 5648 5647
5615 5616 5616 5617 5617 5619 5620 5620 5620 5621 5621 5621 5622 5622 5622 5622 5622 5623 5623 5623 5624 5624 5625 5625 5626 5627 5628 5628 5629 5631 5632 5632 5633 5634 5635 5635 5636 5636 5637 5637 5637 5637 5637 5637
5612 5612 5613 5613 5613 5614 5616 5614 5614 5615 5615 5615 5614 5614 5614 5614 5614 5615 5614 5614 5614 5614 5615 5615 5616 5616 5617 5618 5619 5620 5621 5621 5622 5623 5624 5624 5625 5625 5626 5626 5626 5626 5626 5626
5608 5608 5609 5608 5608 5609 5609 5608 5608 5609 5610 5607 5607 5606 5606 5605 5605 5605 5604 5604 5604 5604 5604 5604 5605 5605 5606 5607 5608 5609 5609 5610 5611 5612 5613 5613 5614 5615 5615 5615 5615 5615 5615 5615
5605 5605 5604 5604 5604 5606 5603 5602 5602 5602 5600 5599 5598 5597 5597 5596 5595 5595 5594 5593 5593 5593 5593 5593 5594 5594 5594 5595 5596 5597 5598 5599 5600 5601 5602 5602 5603 5604 5604 5604 5604 5604 5604 5604
5602 5602 5601 5601 5602 5599 5597 5596 5595 5594 5593 5591 5590 5588 5587 5586 5585 5584 5583 5582 5582 5581 5581 5581 5582 5582 5583 5583 5584 5585 5586 5587 5588 5589 5590 5591 5592 5593 5593 5594 5594 5594 5594 5594
5600 5598 5597 5595 5595 5593 5592 5590 5588 5587 5585 5583 5581 5579 5578 5576 5575 5573 5572 5571 5570 5570 5569 5569 5569 5570 5571 5571 5572 5573 5574 5575 5577 5578 5579 5580 5581 5582 5582 5583 5583 5584 5584 5584
5598 5595 5593 5591 5590 5588 5586 5584 5582 5579 5576 5574 5571 5569 5567 5566 5564 5562 5561 5560 5558 5558 5557 5557 5557 5558 5558 5559 5560 5561 5562 5563 5565 5566 5567 5569 5570 5571 5572 5572 5573 5573 5574 5574
5594 5592 5590 5588 5585 5583 5581 5577 5574 5571 5568 5564 5561 5558 5555 5554 5552 5550 5549 5548 5547 5546 5545 5545 5545 5545 5546 5547 5547 5548 5550 5551 5553 5554 5555 5557 5558 5560 5561 5562 5563 5563 5564 5564